Theta_e
358 359 358 357 356 356 354 351 344 337 338 345 346 353 353 349 352 353 355 361 356 355 350 348 348 348 348 348 348 347 346 345 345 345 345 347 349 352
363 362 359 358 359 358 357 355 352 346 340 347 347 351 354 347 353 356 360 356 354 351 347 345 346 346 345 346 346 345 344 343 343 343 343 344 345 348
355 358 360 362 358 355 356 356 353 352 346 347 348 351 357 356 351 353 358 356 354 346 345 345 343 344 344 344 345 344 343 343 342 342 342 344 346 349
340 344 348 354 357 360 358 355 353 354 351 345 351 353 356 362 363 364 359 353 352 353 345 343 341 341 340 340 341 340 338 337 337 336 338 343 346 348
340 339 338 339 342 354 358 356 355 356 355 352 349 353 351 353 351 355 354 355 358 354 347 342 340 340 340 337 336 334 332 329 328 330 332 337 341 342
339 340 339 337 335 342 351 352 356 355 354 352 349 349 351 353 352 349 349 354 355 356 353 348 344 341 340 338 336 334 329 324 323 324 326 326 328 333
327 330 337 339 339 337 334 333 335 346 351 350 349 349 348 348 347 348 345 347 348 352 348 347 352 348 346 339 343 339 332 327 324 323 323 322 322 323
322 325 328 333 335 333 332 331 330 326 326 344 347 346 347 348 350 349 347 345 340 359 355 351 351 352 352 352 345 341 332 328 326 324 323 321 321 321
321 321 322 328 332 333 331 330 330 330 331 330 333 343 347 350 352 348 346 346 347 352 353 347 354 350 353 349 339 335 332 327 326 325 323 322 321 320
321 322 321 321 323 327 331 331 331 331 331 335 339 344 350 354 354 352 350 348 350 349 351 341 347 346 349 349 336 333 330 325 325 323 321 320 318 316
319 322 322 321 322 321 323 322 324 326 329 327 326 327 335 337 343 352 346 344 340 340 345 342 342 343 347 348 346 329 325 322 322 322 321 319 316 314
317 319 321 321 319 318 321 323 323 326 328 329 331 332 330 339 334 347 347 337 334 334 341 341 341 343 338 347 350 335 332 322 322 320 322 317 313 329
314 315 318 318 314 313 313 319 319 323 327 328 328 332 337 344 343 341 342 340 338 338 343 348 343 343 341 341 347 344 342 334 331 325 317 315 311 323
313 315 316 314 311 310 311 313 312 315 320 323 325 326 332 340 346 344 345 344 347 345 348 350 345 343 340 338 338 348 347 345 340 336 333 318 311 312
312 315 314 311 309 310 311 312 312 315 319 320 321 324 333 338 344 348 349 348 348 351 352 351 349 346 344 340 339 343 343 343 342 341 335 329 326 325
310 315 316 315 314 315 315 316 318 319 321 323 328 333 337 339 340 345 343 340 342 345 350 352 350 347 344 344 343 341 344 338 344 342 339 330 330 329
306 312 314 315 315 314 317 319 320 320 319 323 325 334 333 336 338 342 342 341 338 340 342 346 342 330 322 325 334 339 339 339 341 339 334 330 329 330
299 301 312 312 312 314 317 317 323 324 322 319 330 331 331 334 338 340 340 339 338 339 340 340 334 327 322 317 319 321 324 335 336 337 333 326 323 323
300 303 309 311 314 314 316 317 320 327 329 329 331 332 332 336 335 336 337 337 331 332 330 332 332 331 325 323 315 311 315 327 330 328 327 323 316 313
307 307 309 311 312 313 316 318 322 329 330 331 331 332 333 334 330 328 328 325 324 323 322 323 324 326 326 324 312 314 306 321 322 315 310 310 311 313
306 306 307 313 314 317 319 321 323 324 328 329 329 330 330 327 325 325 322 316 317 321 317 317 318 318 318 317 312 311 312 310 314 314 312 312 311 310
307 306 306 306 308 314 317 317 315 314 315 316 317 320 324 325 324 322 321 320 320 321 319 320 321 319 318 313 310 311 311 313 312 310 311 312 311 307
308 307 306 305 305 306 308 313 314 314 314 315 316 315 315 316 321 323 324 321 320 319 320 319 320 319 316 314 311 312 312 312 312 310 309 309 311 313
Wind_Speed
7 9 8 8 9 9 9 9 8 10 10 6 4 5 4 3 6 7 7 10 15 13 14 14 14 13 12 12 10 10 9 9 9 10 11 12 13 14
6 8 8 8 7 9 9 9 9 10 11 6 5 6 5 6 4 5 5 7 11 13 15 16 17 15 13 13 12 11 10 10 9 9 10 11 12 12
9 9 12 11 9 10 10 10 10 9 9 8 6 9 7 7 6 4 5 5 5 13 17 20 18 16 15 14 13 13 11 10 9 9 10 10 10 10
12 11 12 10 13 11 9 13 12 13 10 15 11 10 9 5 4 5 6 9 7 11 13 15 16 19 16 14 15 15 13 11 10 10 10 10 9 9
14 13 13 12 14 11 11 10 10 10 11 8 11 10 10 7 8 8 8 11 8 14 16 17 17 16 17 19 17 15 14 13 11 10 10 9 9 10
17 16 15 14 15 16 11 13 12 11 11 10 11 12 10 11 10 8 5 5 9 12 15 11 15 20 22 19 16 16 15 12 12 12 11 10 10 9
18 18 17 17 21 13 10 11 10 10 10 11 10 11 11 11 11 9 10 11 11 6 5 6 1 4 6 11 11 15 13 15 14 12 11 10 10 10
19 18 18 24 20 18 18 21 19 14 15 13 11 12 15 10 10 4 3 4 4 1 2 4 2 4 5 7 15 17 18 17 15 13 12 12 11 10
21 19 18 16 20 18 18 17 19 19 23 16 17 17 16 13 9 12 12 7 4 4 5 5 2 4 4 4 17 17 18 17 17 14 12 12 12 10
21 21 22 22 21 21 19 19 20 19 17 13 17 18 18 16 14 11 9 5 5 5 4 8 8 10 8 8 10 16 17 17 17 15 13 13 12 10
20 21 20 22 25 24 21 25 24 24 20 23 27 25 19 20 17 10 11 11 12 11 7 10 11 12 9 9 5 10 10 13 14 14 14 13 11 8
20 21 27 25 28 22 19 19 21 21 17 19 18 16 17 15 19 13 9 10 9 10 10 9 9 4 8 10 5 5 5 7 10 11 13 12 11 5
16 15 15 22 19 22 26 20 24 20 20 15 16 14 14 11 8 9 11 11 11 12 8 5 5 5 8 8 2 4 7 5 7 6 10 10 10 8
19 16 16 22 20 18 15 18 13 11 12 16 15 14 13 11 9 10 12 13 12 15 11 6 5 8 8 8 8 4 7 7 7 6 6 6 9 8
17 21 28 23 21 17 22 23 19 12 13 13 15 15 11 10 10 8 9 12 14 14 10 11 8 9 7 8 4 5 4 3 4 6 7 8 6 5
24 19 21 23 24 19 16 16 12 12 13 13 12 10 9 10 11 9 8 9 9 9 10 11 10 9 8 7 6 7 5 6 7 7 7 6 6 5
18 14 9 5 5 9 11 12 13 13 13 12 12 8 10 9 11 10 10 9 10 7 6 5 4 7 6 3 2 3 3 4 5 6 6 5 5 6
7 9 8 6 7 8 9 9 9 12 11 13 11 9 11 11 11 9 9 7 7 6 6 3 4 3 2 5 9 1 2 5 4 7 4 3 2 2
3 6 8 7 8 10 9 10 10 9 13 9 9 9 11 11 9 9 8 6 4 3 4 3 2 3 5 4 2 10 2 2 3 2 3 3 3 3
13 7 8 9 9 9 9 10 10 8 9 10 10 10 11 8 5 5 5 5 6 4 4 1 1 3 3 4 4 3 9 3 1 3 4 7 10 14
14 13 13 10 8 8 9 11 10 10 9 7 5 5 5 6 6 6 7 9 8 7 6 4 3 9 7 6 6 3 7 17 10 6 8 9 5 3
11 14 16 13 13 11 9 8 9 12 11 9 9 7 2 4 8 8 8 10 8 8 7 5 4 4 4 8 7 6 4 6 14 20 19 12 3 5
11 11 11 12 14 14 13 11 10 9 11 11 9 12 10 8 6 3 5 9 8 8 8 7 5 6 7 7 8 6 10 6 4 6 6 14 11 12
Wind_Direction
263 277 269 264 264 265 272 272 276 286 280 278 259 249 250 260 198 196 210 198 206 212 220 229 236 234 237 238 235 235 240 243 250 265 274 276 275 268
289 280 280 271 268 266 255 262 261 264 274 266 283 278 253 263 245 202 209 211 200 211 217 232 235 230 231 237 235 233 236 239 242 258 268 275 276 267
277 269 273 263 260 263 272 275 276 276 282 286 256 265 243 224 245 235 218 221 232 217 225 234 239 226 226 231 232 232 229 237 245 266 271 271 268 254
283 287 282 274 263 255 250 255 264 275 279 284 279 278 277 273 230 226 231 247 245 247 235 234 228 223 218 225 230 229 224 223 231 255 267 267 259 239
273 272 271 275 282 273 253 253 256 263 268 277 280 283 268 256 264 256 241 244 236 242 247 233 220 211 213 219 225 224 223 216 220 230 243 244 237 234
287 270 264 260 264 265 272 258 255 251 254 255 264 268 268 278 239 234 247 237 233 235 242 243 209 206 213 215 218 220 221 218 211 219 226 221 221 221
293 296 291 262 255 259 266 275 294 295 269 260 260 265 264 259 260 260 257 256 251 236 232 258 228 196 219 224 220 227 212 217 219 212 219 221 214 216
285 283 281 286 280 273 268 273 267 260 263 268 264 259 262 260 266 309 328 299 277 215 139 233 188 183 220 206 208 213 207 212 213 206 201 213 219 212
274 274 275 274 280 278 273 265 262 250 242 250 259 258 261 256 252 267 278 269 263 311 357 285 273 252 271 231 205 209 216 203 200 201 201 208 210 211
272 269 266 268 264 268 278 269 264 266 262 255 244 248 251 254 243 245 249 256 268 257 263 269 273 268 261 265 225 220 216 197 193 195 195 206 201 200
274 268 263 262 260 256 256 262 268 267 266 262 268 266 256 243 236 237 245 254 255 254 228 246 257 259 251 253 238 225 204 191 192 190 193 195 189 185
274 268 264 258 258 256 259 263 261 257 261 266 267 266 252 242 220 214 229 234 248 260 245 237 250 252 272 255 235 175 188 202 209 210 207 184 172 183
269 267 265 263 250 240 242 249 252 260 265 267 266 264 250 232 210 212 212 226 240 243 245 202 234 242 243 263 245 177 188 169 189 201 213 198 179 202
276 264 261 259 260 265 264 261 279 296 274 259 254 247 254 238 216 211 215 221 227 241 254 214 233 231 242 248 247 212 186 186 183 183 193 176 191 202
277 265 260 257 254 253 256 264 260 257 261 251 243 245 245 245 247 246 241 237 234 234 238 240 227 243 240 254 251 236 217 177 193 167 174 179 177 175
270 264 251 252 252 255 258 252 254 242 242 253 243 234 230 232 234 229 231 239 225 231 226 230 228 235 241 238 242 251 233 214 182 200 179 164 168 173
270 263 240 254 249 239 245 251 240 228 237 244 249 239 229 230 235 231 222 216 218 218 228 219 70 78 69 41 249 249 247 233 204 183 162 191 185 177
253 245 246 233 247 255 250 255 271 250 233 232 229 226 234 233 232 219 221 204 208 209 212 149 142 140 114 66 34 10 267 262 190 181 170 164 149 126
298 261 249 252 251 254 260 265 260 264 246 247 228 226 231 232 222 217 205 196 221 143 99 110 188 169 195 188 112 69 258 275 135 101 114 88 119 51
358 307 283 260 250 252 256 262 266 269 249 235 228 225 220 208 176 168 156 121 117 91 95 82 265 239 238 194 128 1 13 240 120 100 103 81 90 90
2 359 354 338 248 266 262 256 260 271 275 238 205 211 206 164 151 135 123 122 126 113 110 87 66 97 111 106 99 73 44 48 62 117 134 111 109 76
1 10 7 9 12 9 27 41 55 58 49 42 48 34 14 123 129 124 142 124 118 118 124 132 121 116 95 98 99 94 76 64 69 66 55 60 127 123
6 10 13 12 20 17 18 24 50 47 61 41 39 55 25 16 49 72 156 135 131 129 124 114 101 85 85 98 115 107 108 78 35 64 54 37 61 89